Theta_e
346 345 345 344 341 338 337 333 327 323 322 321 321 320 320 319 315 318 323 325 327 326 326 326 326 327 327 328 331 333 334 333 334 335 335 336 337 338 339 340 339 339 341
345 344 341 338 336 333 329 326 324 321 323 322 324 323 317 309 308 315 320 323 325 324 323 322 324 324 323 320 322 327 328 328 328 328 328 328 332 334 336 337 338 341 339
344 340 337 333 331 328 327 324 320 321 322 322 321 316 307 304 307 317 318 320 320 322 323 320 320 313 312 315 317 318 321 322 323 326 328 331 333 335 335 336 336 339 341
339 336 333 332 330 329 326 321 319 317 314 313 315 308 304 305 315 318 319 320 318 313 309 315 311 308 309 311 314 317 320 323 324 325 326 327 328 330 331 333 334 335 339
338 337 333 329 328 326 319 317 313 310 309 307 305 304 304 304 310 316 318 321 318 314 309 310 306 304 305 310 318 319 320 322 323 323 323 324 325 327 328 328 328 328 330
337 335 328 323 317 315 314 312 309 310 312 310 307 306 306 307 311 316 316 318 316 314 313 312 310 305 304 305 307 316 320 321 320 319 320 321 322 323 323 324 325 325 324
334 330 324 317 316 315 312 311 311 311 310 311 311 309 307 307 310 314 316 316 317 317 314 314 312 307 306 307 307 307 314 318 318 318 319 320 321 321 322 323 324 326 327
331 327 320 317 316 312 312 312 313 311 313 314 310 309 310 311 310 309 313 316 316 317 315 314 313 310 310 310 311 311 311 313 313 314 315 318 319 318 319 319 321 323 324
327 323 319 319 315 313 313 316 315 318 320 321 319 314 317 316 315 313 309 306 316 316 314 313 312 311 312 312 311 312 313 314 313 314 313 313 313 312 312 313 315 315 318
325 322 319 319 315 314 315 313 316 321 320 321 321 317 318 319 316 315 312 310 312 316 314 313 311 311 312 312 311 311 312 314 313 312 315 313 314 313 312 311 310 310 314
324 320 321 320 316 316 314 315 319 316 317 317 318 319 319 319 318 314 313 311 312 313 314 313 311 312 312 312 311 311 311 311 310 311 311 311 312 311 311 311 310 309 309
322 317 319 320 316 313 311 314 315 319 320 320 320 319 320 320 320 315 313 312 313 313 312 311 312 313 313 312 311 312 312 311 311 311 310 310 309 310 311 309 310 309 310
319 314 314 315 321 322 313 319 320 320 321 321 320 321 319 318 319 316 313 313 313 312 311 311 312 315 315 313 313 312 312 312 311 311 310 311 311 310 309 309 309 308 308
317 314 318 322 322 321 319 321 322 322 320 317 317 317 316 316 316 315 314 314 313 313 312 311 313 315 315 313 312 310 311 311 309 310 308 311 311 311 311 309 308 308 308
318 318 318 317 318 314 320 320 321 318 315 317 317 316 316 315 315 315 316 316 315 314 314 313 312 313 313 314 312 313 313 312 311 311 310 308 310 310 311 309 307 307 308
320 320 317 316 316 319 320 319 318 318 317 317 317 318 318 317 317 316 317 315 316 316 316 316 315 314 314 315 314 313 313 313 312 310 309 308 308 310 310 307 307 306 306
318 320 321 320 319 320 320 320 320 319 319 318 318 318 318 318 318 317 317 317 316 316 315 316 316 316 315 315 314 313 312 312 311 309 309 308 309 310 307 307 306 306 305
321 322 320 320 320 320 320 320 320 320 319 319 319 320 320 319 319 318 318 318 316 315 315 315 317 316 316 315 313 313 315 312 310 309 309 310 309 307 307 306 305 303 303
320 321 318 318 319 320 320 320 319 319 319 320 320 320 321 320 319 317 315 315 317 316 316 317 317 317 315 314 312 311 313 310 309 309 308 307 306 306 305 302 301 302 303
320 319 318 319 321 320 320 319 320 320 321 320 320 320 320 319 314 313 314 317 318 317 317 316 316 314 313 311 311 310 310 309 307 306 306 305 304 301 300 301 301 301 302
318 317 317 320 319 320 319 320 319 320 319 320 320 317 316 314 313 313 313 315 313 312 312 312 310 309 310 310 308 308 308 307 306 304 305 304 300 300 302 303 302 302 302
319 319 319 320 318 319 320 320 320 320 320 320 317 315 314 313 312 312 311 311 310 309 309 308 307 307 307 306 306 306 305 305 305 305 305 303 300 301 302 303 303 302 303
320 320 320 320 321 321 321 321 320 320 318 316 315 314 313 312 311 311 310 309 308 308 308 307 306 305 305 305 305 305 305 306 306 306 304 302 300 301 301 301 302 302 303
319 320 322 322 321 321 321 321 320 319 320 316 314 313 312 311 311 310 309 308 308 307 307 306 305 304 304 305 306 306 305 306 306 304 304 301 300 301 301 301 302 302 303
321 321 321 320 321 322 321 321 320 318 315 313 313 312 311 311 311 309 308 308 307 306 306 304 305 305 305 306 306 305 305 305 304 304 303 301 301 301 302 303 303 302 303
320 321 322 322 322 321 321 320 319 316 315 313 312 311 311 310 309 308 307 307 306 306 304 305 305 305 305 305 305 304 305 304 304 304 302 300 301 302 304 303 302 302 303
Wind_Speed
14 13 13 11 8 6 6 6 6 5 5 5 5 4 5 8 7 7 6 8 5 9 10 9 9 10 10 6 7 7 5 7 10 13 15 15 16 16 18 19 19 18 17
19 15 13 10 7 5 4 3 3 2 2 4 4 4 7 9 8 7 9 9 7 8 7 6 6 10 12 11 9 7 9 10 14 16 18 17 14 13 13 17 17 17 14
17 14 11 9 6 5 5 4 2 2 2 3 1 5 9 10 8 8 10 8 8 7 7 11 14 17 14 13 10 9 8 8 10 12 12 9 12 12 11 10 11 12 11
17 16 15 12 8 6 4 2 4 3 4 5 3 7 10 10 10 10 11 13 15 16 11 9 15 21 20 18 15 14 13 14 12 12 14 14 14 15 13 13 12 10 10
23 17 14 12 10 7 4 3 4 5 7 10 9 9 10 9 11 11 13 12 16 18 20 17 21 20 19 17 16 17 14 14 16 18 17 19 19 19 20 20 18 19 14
20 15 11 9 8 7 6 6 7 8 7 9 9 12 13 12 12 11 13 11 14 20 22 21 22 22 21 20 16 14 13 13 18 19 19 19 18 20 20 21 21 21 22
18 12 9 8 8 8 8 8 8 8 7 7 8 11 14 13 10 9 8 10 11 14 18 21 23 23 20 19 19 15 11 9 12 16 20 21 20 20 19 19 18 18 17
15 11 10 10 9 10 9 8 7 7 8 10 9 11 15 17 17 11 4 3 4 7 12 17 21 23 19 22 22 19 18 18 17 18 18 18 16 18 17 18 18 17 15
14 11 11 10 10 11 10 9 7 8 5 5 7 7 13 14 16 18 15 8 2 8 8 14 17 18 18 21 22 21 17 15 17 15 14 17 20 20 22 21 22 24 21
13 11 12 10 10 11 9 7 8 7 4 1 3 4 7 6 10 15 20 13 5 5 9 12 15 10 13 16 18 20 19 17 18 18 15 16 19 20 23 26 24 27 23
12 12 13 10 11 9 8 8 9 9 11 5 3 1 3 2 3 10 16 16 13 4 6 10 6 6 8 8 12 15 16 16 21 15 19 15 16 19 20 21 21 26 22
13 14 15 13 11 8 8 8 10 9 6 2 3 5 8 9 4 6 12 12 10 11 11 13 7 8 9 6 9 15 18 17 19 17 21 20 25 18 19 20 18 22 19
13 15 15 14 12 5 9 12 9 5 2 8 4 6 1 1 6 6 12 13 12 13 14 12 10 11 8 3 7 11 14 13 15 19 21 18 21 22 20 18 18 19 18
15 16 19 18 11 9 12 10 2 3 2 6 10 6 3 4 4 9 11 13 14 14 15 11 7 6 10 16 14 17 19 17 23 20 24 16 15 20 20 17 21 23 21
15 16 16 15 14 15 12 7 4 3 1 7 6 5 4 6 7 8 10 11 11 12 14 12 8 7 10 13 14 14 15 14 19 19 23 25 20 20 20 16 20 20 21
17 16 15 12 11 14 12 10 8 5 5 3 4 3 3 6 7 10 9 10 12 14 16 16 12 12 14 14 16 19 12 16 20 21 22 23 16 20 18 21 18 20 22
16 16 14 11 10 8 11 12 12 9 13 13 10 7 6 6 11 14 13 12 17 18 19 15 14 13 10 8 16 16 15 16 16 22 18 16 21 19 18 24 26 27 28
15 12 12 12 12 11 8 9 11 11 14 16 11 12 10 9 10 11 14 16 20 21 20 12 12 9 11 16 16 15 14 13 17 15 16 16 16 17 26 30 32 31 23
19 13 11 15 9 11 9 12 13 14 15 12 14 12 10 10 10 9 12 15 15 9 9 9 12 12 13 15 19 14 9 12 11 14 15 17 24 28 31 31 26 19 22
16 14 16 12 6 12 11 11 13 14 9 11 9 11 7 8 9 9 9 5 4 8 6 8 8 12 13 14 9 9 12 15 16 18 20 24 27 28 23 23 23 22 22
16 14 14 14 15 13 12 9 4 7 10 13 13 4 6 5 3 5 5 3 6 5 8 9 10 10 12 12 15 17 18 21 22 20 21 26 25 21 22 22 22 22 21
14 11 10 5 10 12 10 8 11 11 8 8 5 5 2 4 6 8 8 9 8 9 10 12 12 12 14 15 18 19 23 21 17 19 23 29 23 22 22 24 25 21 14
10 14 17 15 13 12 16 10 13 10 6 4 6 6 6 8 10 10 10 11 11 13 14 15 14 13 15 17 19 21 17 17 18 22 29 31 24 22 23 24 23 15 16
13 14 8 12 16 8 9 5 10 10 12 12 8 9 10 11 10 11 13 13 14 15 17 19 13 12 13 16 19 20 19 18 21 24 31 28 25 23 23 23 21 17 19
13 5 7 8 5 7 9 8 3 5 5 6 8 9 11 13 14 12 12 13 16 17 18 9 10 13 14 16 19 19 18 18 24 29 29 27 24 23 24 23 19 18 21
7 5 7 5 5 7 10 7 8 9 10 11 12 13 13 13 12 11 13 17 16 17 14 11 15 11 13 16 17 20 23 26 29 31 30 26 24 22 22 21 16 18 20
Wind_Direction
181 179 178 182 195 207 220 239 259 288 309 328 337 332 348 7 18 37 49 45 78 40 28 18 13 352 348 320 301 295 290 306 316 303 301 300 304 304 293 292 296 300 290
169 178 172 179 186 214 229 250 294 301 347 56 65 20 22 32 49 75 65 54 66 59 12 9 349 335 328 327 312 309 306 314 320 314 311 304 321 349 312 297 291 300 298
185 175 170 177 192 206 229 259 230 168 127 114 123 37 41 51 74 73 68 60 33 26 359 353 1 0 5 5 357 341 339 341 350 348 337 344 358 0 334 313 304 276 286
166 170 172 183 207 215 218 179 140 122 108 96 75 47 56 67 86 77 64 49 37 35 29 358 25 21 17 12 14 9 5 4 0 0 358 349 344 345 350 343 332 328 306
183 194 200 201 213 226 214 170 116 117 99 92 81 60 57 73 78 69 66 44 30 42 37 32 28 22 20 20 22 15 10 10 3 6 358 350 346 341 346 345 338 332 328
198 205 206 206 200 186 168 139 124 115 99 93 86 65 60 63 67 69 61 44 27 37 35 30 26 25 26 30 28 30 33 16 10 7 354 347 350 352 340 340 346 346 342
199 196 198 192 180 169 154 143 129 117 104 89 79 79 63 62 65 70 68 50 14 18 22 21 20 21 29 34 33 42 32 47 30 20 18 16 6 5 0 353 347 344 347
195 195 190 184 172 161 153 144 131 113 98 81 71 72 65 57 47 39 34 69 55 30 11 19 15 20 37 37 38 44 52 49 40 35 29 19 12 3 355 347 338 328 316
195 188 184 180 169 161 152 147 132 106 85 58 43 91 57 54 44 36 31 34 145 46 40 22 10 23 32 33 32 34 40 43 40 34 24 9 7 6 360 358 9 359 347
193 182 178 176 172 164 165 164 153 135 116 95 334 50 70 40 36 31 26 28 63 45 41 13 4 24 21 23 25 21 18 19 19 15 24 17 3 6 10 6 6 3 4
186 179 180 182 170 172 164 150 147 115 100 116 146 221 305 311 1 30 20 19 25 43 359 350 354 17 27 29 25 18 11 5 6 9 359 358 13 10 7 6 2 359 357
190 185 184 182 176 170 161 145 145 133 119 105 317 299 279 272 255 26 12 12 5 359 350 348 343 335 331 7 15 16 8 4 6 4 9 8 5 3 1 358 355 353 352
189 184 175 168 159 181 158 135 139 144 288 331 325 322 122 177 195 353 350 346 344 345 342 340 342 13 341 44 20 6 359 355 353 343 347 350 350 349 350 351 345 351 351
186 171 158 160 176 181 154 155 166 291 231 281 269 259 346 89 325 323 334 332 329 332 337 337 315 350 343 332 339 333 331 344 350 335 342 336 337 341 338 341 344 348 348
177 168 170 179 188 172 163 164 194 265 94 91 84 101 82 234 269 291 310 324 323 325 332 331 329 309 312 312 323 332 333 329 335 335 337 338 325 339 345 340 343 347 340
174 169 161 145 158 160 168 182 193 244 227 231 252 299 320 316 290 283 302 318 316 318 320 326 323 312 302 312 307 327 319 310 330 335 334 339 342 342 344 337 338 334 334
168 162 168 183 199 197 208 219 231 273 261 247 259 298 302 316 301 287 290 299 308 309 314 317 316 317 314 302 309 322 324 321 333 340 339 346 344 334 328 326 326 328 327
164 190 208 210 229 230 225 243 260 271 268 278 267 291 295 314 300 288 274 285 305 312 309 303 312 300 303 309 319 316 318 317 333 338 337 325 313 318 321 323 324 324 329
179 193 195 191 219 223 235 248 256 254 267 275 301 300 284 285 294 301 304 306 307 313 318 300 305 307 314 315 313 316 305 328 332 316 315 311 316 318 320 321 323 324 322
174 184 199 210 217 231 248 251 272 277 288 311 315 326 316 303 322 317 320 315 322 341 342 313 304 307 304 315 323 309 309 301 303 310 315 318 319 320 325 330 331 331 326
168 179 198 220 244 231 241 278 289 284 287 298 311 319 324 339 357 311 338 293 308 310 306 303 315 320 303 297 301 306 306 306 310 312 318 323 328 330 332 333 330 327 327
182 204 213 197 174 195 224 238 256 279 304 314 328 343 329 328 308 313 310 306 314 310 307 309 311 307 305 305 304 307 307 310 313 314 321 331 328 327 330 331 332 331 330
224 242 240 246 245 246 254 253 271 299 313 308 315 308 319 309 302 298 296 303 299 299 299 299 303 304 307 305 305 312 313 312 312 318 325 327 326 324 324 327 330 322 319
204 208 281 284 254 208 254 243 289 265 287 273 279 287 293 292 293 298 299 296 294 299 300 304 303 311 306 309 309 314 316 303 305 317 323 323 320 320 320 320 318 323 326
198 236 301 288 302 316 305 302 262 238 269 273 288 294 295 296 306 302 290 291 299 299 308 317 309 300 305 305 309 311 302 301 312 319 322 322 320 318 317 314 315 318 312
218 306 258 316 330 294 297 268 246 262 278 293 298 305 308 309 308 290 294 304 299 300 309 308 307 313 306 303 304 304 303 311 315 318 319 317 316 318 318 316 312 310 306